Location: Alderney
(49.7170°N, 2.2000°W)
Time: 09:26:40
(UTC+00:00)

N. Korean satellite - Visible Passes

Search period start: 13 December 2017 00:00
Search period end: 23 December 2017 00:00
Orbit: 461 x 513 km, 97.2° (Epoch: 12 December)

Date Brightness Start Highest point End Pass type
(mag) Time Alt. Az. Time Alt. Az. Time Alt. Az.
13 Dec 8.7 06:25:50 10° NNE 06:29:12 30° E 06:32:30 10° SSE visible
13 Dec 7.7 17:06:25 10° ESE 17:09:29 25° ENE 17:12:35 10° N visible
13 Dec 8.6 18:39:33 10° SSW 18:42:54 31° W 18:46:17 10° NNW visible
14 Dec 9.7 06:02:52 10° NE 06:05:27 18° E 06:08:00 10° SE visible
14 Dec 8.3 16:43:55 10° E 16:46:09 15° ENE 16:48:23 10° NNE visible
14 Dec 7.3 18:15:34 10° S 18:19:14 57° W 18:22:58 10° NNW visible
15 Dec 6.6 07:11:57 10° N 07:15:41 78° WNW 07:19:21 10° SSW visible
15 Dec 6.5 17:51:57 10° SSE 17:55:40 77° ENE 17:59:26 10° N visible
15 Dec 10.2 19:29:01 10° W 19:29:42 10° W 19:30:22 10° WNW visible
16 Dec 7.4 06:48:25 10° NNE 06:52:06 55° E 06:55:42 10° S visible
16 Dec 7.0 17:28:37 10° SE 17:32:09 42° ENE 17:35:45 10° N visible
16 Dec 9.5 19:03:13 10° SW 19:05:52 18° W 19:08:33 10° NW visible
17 Dec 8.8 06:25:07 10° NNE 06:28:26 30° E 06:31:41 10° SSE visible
17 Dec 7.7 17:05:39 10° ESE 17:08:44 25° ENE 17:11:50 10° N visible
17 Dec 8.5 18:38:46 10° SSW 18:42:08 31° W 18:45:33 10° NNW visible
18 Dec 9.7 06:02:09 10° NE 06:04:40 17° E 06:07:10 10° SE visible
18 Dec 8.3 16:43:10 10° E 16:45:23 15° ENE 16:47:37 10° NNE visible
18 Dec 7.3 18:14:47 10° S 18:18:29 58° W 18:22:12 10° NNW visible
19 Dec 6.6 07:11:11 10° N 07:14:54 79° WNW 07:18:32 10° SSW visible
19 Dec 6.5 17:51:09 10° SSE 17:54:53 76° ENE 17:58:41 10° N visible
19 Dec 10.2 19:28:05 10° W 19:28:54 11° W 19:29:44 10° WNW visible
20 Dec 7.5 06:47:39 10° NNE 06:51:19 54° E 06:54:51 10° S visible
20 Dec 7.0 17:27:50 10° SE 17:31:23 41° ENE 17:34:57 10° N visible
20 Dec 9.5 19:02:24 10° SW 19:05:05 18° W 19:07:47 10° NW visible
21 Dec 8.8 06:24:21 10° NNE 06:27:37 29° E 06:30:49 10° SSE visible
21 Dec 7.7 17:04:52 10° ESE 17:07:57 24° ENE 17:11:02 10° NNE visible
21 Dec 8.5 18:37:56 10° SSW 18:41:20 32° W 18:44:45 10° NNW visible
22 Dec 9.7 06:01:24 10° NE 06:03:51 17° E 06:06:15 10° SE visible
22 Dec 7.3 18:13:58 10° S 18:17:40 58° W 18:21:24 10° NNW visible
